Time,TemperatureF,DewpointF,PressureIn,WindDirection,WindDirectionDegrees,WindSpeedMPH,WindSpeedGustMPH,Humidity,HourlyPrecipIn,Conditions,Clouds,dailyrainin,SoftwareType,DateUTC
2013-05-02 00:00:00,55.4,47.3,30.10,WSW,249,0.0,0.0,74,0.00,,,0.00,meteohub,2013-05-02 07:00:00,
2013-05-02 00:05:00,55.0,46.6,30.10,WSW,249,0.0,0.0,73,0.00,,,0.00,meteohub,2013-05-02 07:05:00,
2013-05-02 00:10:00,54.9,46.4,30.10,WSW,249,0.0,0.0,73,0.00,,,0.00,meteohub,2013-05-02 07:10:00,
2013-05-02 00:15:00,54.7,46.2,30.10,WSW,249,0.0,0.0,73,0.00,,,0.00,meteohub,2013-05-02 07:15:00,
2013-05-02 00:20:00,54.5,46.0,30.10,WSW,249,0.0,0.0,73,0.00,,,0.00,meteohub,2013-05-02 07:20:00,
2013-05-02 00:25:00,54.1,45.3,30.10,WSW,249,0.0,0.0,72,0.00,,,0.00,meteohub,2013-05-02 07:25:00,
2013-05-02 00:30:00,54.1,45.0,30.10,WSW,249,0.0,0.0,71,0.00,,,0.00,meteohub,2013-05-02 07:30:00,
2013-05-02 00:35:00,54.3,44.4,30.10,WSW,249,0.0,0.0,69,0.00,,,0.00,meteohub,2013-05-02 07:35:00,
2013-05-02 00:40:00,54.7,44.2,30.10,WSW,249,0.0,1.0,68,0.00,,,0.00,meteohub,2013-05-02 07:40:00,
2013-05-02 00:46:00,54.9,44.1,30.10,WSW,249,0.0,1.0,67,0.00,,,0.00,meteohub,2013-05-02 07:46:00,
2013-05-02 00:51:00,55.2,43.7,30.10,WSW,249,0.0,1.0,65,0.00,,,0.00,meteohub,2013-05-02 07:51:00,
2013-05-02 00:56:00,55.8,43.3,30.10,WSW,249,0.0,3.0,63,0.00,,,0.00,meteohub,2013-05-02 07:56:00,
2013-05-02 01:01:00,55.9,42.3,30.10,WSW,249,0.0,3.0,60,0.00,,,0.00,meteohub,2013-05-02 08:01:00,
2013-05-02 01:06:00,55.9,41.9,30.10,WSW,249,0.0,3.0,59,0.00,,,0.00,meteohub,2013-05-02 08:06:00,
2013-05-02 01:11:00,56.3,40.8,30.10,WSW,249,0.0,0.0,56,0.00,,,0.00,meteohub,2013-05-02 08:11:00,
2013-05-02 01:16:00,56.7,41.2,30.10,WSW,249,0.0,0.0,56,0.00,,,0.00,meteohub,2013-05-02 08:16:00,
2013-05-02 01:21:00,56.5,42.3,30.10,WSW,249,0.0,0.0,59,0.00,,,0.00,meteohub,2013-05-02 08:21:00,
2013-05-02 01:26:00,57.0,40.1,30.10,WSW,249,0.0,0.0,53,0.00,,,0.00,meteohub,2013-05-02 08:26:00,
2013-05-02 01:31:00,58.8,40.3,30.10,WSW,250,2.0,4.0,50,0.00,,,0.00,meteohub,2013-05-02 08:31:00,
2013-05-02 01:36:00,60.3,40.5,30.10,North,359,4.0,4.0,48,0.00,,,0.00,meteohub,2013-05-02 08:36:00,
2013-05-02 01:41:00,61.2,40.3,30.10,NNE,20,5.0,6.0,46,0.00,,,0.00,meteohub,2013-05-02 08:41:00,
2013-05-02 01:46:00,62.1,39.9,30.10,NNE,26,5.0,7.0,44,0.00,,,0.00,meteohub,2013-05-02 08:46:00,
2013-05-02 01:51:00,62.8,39.9,30.10,NNE,28,0.0,7.0,43,0.00,,,0.00,meteohub,2013-05-02 08:51:00,
2013-05-02 01:56:00,62.2,41.2,30.10,NNE,28,0.0,7.0,46,0.00,,,0.00,meteohub,2013-05-02 08:56:00,
2013-05-02 02:01:00,61.0,41.2,30.10,NNE,28,0.0,6.0,48,0.00,,,0.00,meteohub,2013-05-02 09:01:00,
2013-05-02 02:06:00,59.7,40.5,30.10,NNE,28,0.0,2.0,49,0.00,,,0.00,meteohub,2013-05-02 09:06:00,
2013-05-02 02:11:00,59.4,37.9,30.10,NNE,28,4.0,0.0,45,0.00,,,0.00,meteohub,2013-05-02 09:11:00,
2013-05-02 02:16:00,61.2,39.7,30.10,NNE,32,3.0,6.0,45,0.00,,,0.00,meteohub,2013-05-02 09:16:00,
2013-05-02 02:21:00,61.9,39.7,30.10,NNE,32,3.0,6.0,44,0.00,,,0.00,meteohub,2013-05-02 09:21:00,
2013-05-02 02:26:00,62.2,39.4,30.10,NNE,32,3.0,6.0,43,0.00,,,0.00,meteohub,2013-05-02 09:26:00,
2013-05-02 02:31:00,62.2,39.4,30.10,NE,34,4.0,5.0,43,0.00,,,0.00,meteohub,2013-05-02 09:31:00,
2013-05-02 02:36:00,62.4,39.6,30.10,NE,35,3.0,6.0,43,0.00,,,0.00,meteohub,2013-05-02 09:36:00,
2013-05-02 02:41:00,62.6,39.2,30.11,NE,40,2.0,6.0,42,0.00,,,0.00,meteohub,2013-05-02 09:41:00,
2013-05-02 02:46:00,62.8,39.4,30.11,NE,39,2.0,6.0,42,0.00,,,0.00,meteohub,2013-05-02 09:46:00,
2013-05-02 02:51:00,63.0,38.8,30.11,NE,39,0.0,5.0,41,0.00,,,0.00,meteohub,2013-05-02 09:51:00,
2013-05-02 02:57:00,62.6,37.9,30.11,NE,39,0.0,5.0,40,0.00,,,0.00,meteohub,2013-05-02 09:57:00,
2013-05-02 03:02:00,62.1,37.4,30.11,NE,39,0.0,5.0,40,0.00,,,0.00,meteohub,2013-05-02 10:02:00,
2013-05-02 03:07:00,62.1,37.4,30.11,NE,39,2.0,3.0,40,0.00,,,0.00,meteohub,2013-05-02 10:07:00,
2013-05-02 03:12:00,61.7,37.2,30.11,NE,39,0.0,2.0,40,0.00,,,0.00,meteohub,2013-05-02 10:12:00,
2013-05-02 03:17:00,61.2,36.7,30.11,NE,39,0.0,2.0,40,0.00,,,0.00,meteohub,2013-05-02 10:17:00,
2013-05-02 03:22:00,61.3,36.9,30.11,NE,39,0.0,2.0,40,0.00,,,0.00,meteohub,2013-05-02 10:22:00,
2013-05-02 03:27:00,61.7,37.8,30.11,NE,41,3.0,0.0,41,0.00,,,0.00,meteohub,2013-05-02 10:27:00,
2013-05-02 03:32:00,61.9,41.9,30.11,NE,43,4.0,4.0,48,0.00,,,0.00,meteohub,2013-05-02 10:32:00,
2013-05-02 03:37:00,61.9,44.6,30.11,NE,50,2.0,6.0,53,0.00,,,0.00,meteohub,2013-05-02 10:37:00,
2013-05-02 03:42:00,61.5,44.2,30.11,NE,36,3.0,6.0,53,0.00,,,0.00,meteohub,2013-05-02 10:42:00,
2013-05-02 03:47:00,61.3,45.0,30.11,NE,45,4.0,6.0,55,0.00,,,0.00,meteohub,2013-05-02 10:47:00,
2013-05-02 03:52:00,61.3,45.5,30.12,NE,43,3.0,6.0,56,0.00,,,0.00,meteohub,2013-05-02 10:52:00,
2013-05-02 03:57:00,61.2,45.9,30.12,NE,38,3.0,7.0,57,0.00,,,0.00,meteohub,2013-05-02 10:57:00,
2013-05-02 04:02:00,61.2,47.1,30.12,NNE,33,6.0,7.0,60,0.00,,,0.00,meteohub,2013-05-02 11:02:00,
2013-05-02 04:07:00,61.0,46.9,30.12,NE,39,4.0,8.0,60,0.00,,,0.00,meteohub,2013-05-02 11:07:00,
2013-05-02 04:12:00,61.2,46.8,30.12,NNE,30,3.0,8.0,59,0.00,,,0.00,meteohub,2013-05-02 11:12:00,
2013-05-02 04:17:00,61.0,46.9,30.12,NNE,30,5.0,7.0,60,0.00,,,0.00,meteohub,2013-05-02 11:17:00,
2013-05-02 04:22:00,61.0,47.8,30.12,NNE,20,4.0,8.0,62,0.00,,,0.00,meteohub,2013-05-02 11:22:00,
2013-05-02 04:27:00,61.0,46.9,30.12,NE,45,2.0,9.0,60,0.00,,,0.00,meteohub,2013-05-02 11:27:00,
2013-05-02 04:32:00,61.2,45.9,30.12,NE,41,3.0,9.0,57,0.00,,,0.00,meteohub,2013-05-02 11:32:00,
2013-05-02 04:37:00,61.5,44.2,30.12,NE,49,4.0,9.0,53,0.00,,,0.00,meteohub,2013-05-02 11:37:00,
2013-05-02 04:42:00,61.9,44.1,30.12,ENE,62,3.0,6.0,52,0.00,,,0.00,meteohub,2013-05-02 11:42:00,
2013-05-02 04:47:00,62.2,44.4,30.12,NE,44,5.0,9.0,52,0.00,,,0.00,meteohub,2013-05-02 11:47:00,
2013-05-02 04:52:00,62.2,45.3,30.12,NNE,33,6.0,9.0,54,0.00,,,0.00,meteohub,2013-05-02 11:52:00,
2013-05-02 04:57:00,62.1,45.1,30.12,NE,44,5.0,9.0,54,0.00,,,0.00,meteohub,2013-05-02 11:57:00,
2013-05-02 05:02:00,62.1,44.2,30.12,NNE,27,2.0,9.0,52,0.00,,,0.00,meteohub,2013-05-02 12:02:00,
2013-05-02 05:07:00,62.1,45.1,30.12,NNE,29,5.0,8.0,54,0.00,,,0.00,meteohub,2013-05-02 12:07:00,
2013-05-02 05:12:00,62.1,45.1,30.12,NNE,27,3.0,7.0,54,0.00,,,0.00,meteohub,2013-05-02 12:12:00,
2013-05-02 05:17:00,62.2,43.9,30.12,NE,37,1.0,7.0,51,0.00,,,0.00,meteohub,2013-05-02 12:17:00,
2013-05-02 05:22:00,62.4,43.0,30.12,NE,38,1.0,7.0,49,0.00,,,0.00,meteohub,2013-05-02 12:22:00,
2013-05-02 05:27:00,62.4,43.5,30.12,NE,44,3.0,7.0,50,0.00,,,0.00,meteohub,2013-05-02 12:27:00,
2013-05-02 05:32:00,62.4,44.1,30.12,NE,45,2.0,5.0,51,0.00,,,0.00,meteohub,2013-05-02 12:32:00,
2013-05-02 05:37:00,62.2,43.9,30.12,NE,44,2.0,6.0,51,0.00,,,0.00,meteohub,2013-05-02 12:37:00,
2013-05-02 05:42:00,62.1,45.1,30.12,NE,46,0.0,6.0,54,0.00,,,0.00,meteohub,2013-05-02 12:42:00,
2013-05-02 05:47:00,61.9,45.5,30.12,ENE,66,4.0,7.0,55,0.00,,,0.00,meteohub,2013-05-02 12:47:00,
2013-05-02 05:52:00,61.5,46.2,30.12,ENE,61,3.0,7.0,57,0.00,,,0.00,meteohub,2013-05-02 12:52:00,
2013-05-02 05:57:00,61.5,47.1,30.12,ENE,72,4.0,7.0,59,0.00,,,0.00,meteohub,2013-05-02 12:57:00,
2013-05-02 06:02:00,61.5,46.6,30.12,ENE,68,0.0,7.0,58,0.00,,,0.00,meteohub,2013-05-02 13:02:00,
2013-05-02 06:07:00,61.9,46.9,30.12,East,82,2.0,7.0,58,0.00,,,0.00,meteohub,2013-05-02 13:07:00,
2013-05-02 06:12:00,62.1,47.1,30.12,ENE,58,7.0,7.0,58,0.00,,,0.00,meteohub,2013-05-02 13:12:00,
2013-05-02 06:17:00,62.2,48.2,30.12,ENE,75,6.0,8.0,60,0.00,,,0.00,meteohub,2013-05-02 13:17:00,
2013-05-02 06:22:00,62.1,49.8,30.12,East,92,2.0,9.0,64,0.00,,,0.00,meteohub,2013-05-02 13:22:00,
2013-05-02 06:27:00,61.7,49.5,30.12,ENE,64,5.0,10.0,64,0.00,,,0.00,meteohub,2013-05-02 13:27:00,
2013-05-02 06:32:00,61.3,49.5,30.13,East,79,2.0,10.0,65,0.00,,,0.00,meteohub,2013-05-02 13:32:00,
2013-05-02 06:37:00,61.3,50.4,30.13,ENE,58,7.0,10.0,67,0.00,,,0.00,meteohub,2013-05-02 13:37:00,
2013-05-02 06:42:00,61.0,51.1,30.13,ENE,68,6.0,10.0,70,0.00,,,0.00,meteohub,2013-05-02 13:42:00,
2013-05-02 06:47:00,60.8,51.3,30.13,East,84,4.0,10.0,71,0.00,,,0.00,meteohub,2013-05-02 13:47:00,
2013-05-02 06:52:00,61.0,51.1,30.13,East,79,3.0,10.0,70,0.00,,,0.00,meteohub,2013-05-02 13:52:00,
2013-05-02 06:57:00,61.2,50.9,30.13,East,80,6.0,9.0,69,0.00,,,0.00,meteohub,2013-05-02 13:57:00,
2013-05-02 07:02:00,61.5,50.5,30.13,ENE,76,3.0,10.0,67,0.00,,,0.00,meteohub,2013-05-02 14:02:00,
2013-05-02 07:07:00,61.9,50.4,30.14,East,83,5.0,10.0,66,0.00,,,0.00,meteohub,2013-05-02 14:07:00,
2013-05-02 07:12:00,62.2,50.4,30.14,ENE,64,2.0,10.0,65,0.00,,,0.00,meteohub,2013-05-02 14:12:00,
2013-05-02 07:17:00,62.6,49.8,30.14,ENE,76,7.0,9.0,63,0.00,,,0.00,meteohub,2013-05-02 14:17:00,
2013-05-02 07:22:00,63.1,48.6,30.13,East,84,6.0,11.0,59,0.00,,,0.00,meteohub,2013-05-02 14:22:00,
2013-05-02 07:27:00,63.9,48.4,30.14,East,83,5.0,11.0,57,0.00,,,0.00,meteohub,2013-05-02 14:27:00,
2013-05-02 07:32:00,64.2,47.3,30.14,ESE,107,3.0,9.0,54,0.00,,,0.00,meteohub,2013-05-02 14:32:00,
2013-05-02 07:37:00,64.8,46.2,30.14,East,87,8.0,9.0,51,0.00,,,0.00,meteohub,2013-05-02 14:37:00,
2013-05-02 07:42:00,65.7,43.7,30.14,ENE,77,7.0,9.0,45,0.00,,,0.00,meteohub,2013-05-02 14:42:00,
2013-05-02 07:47:00,66.0,44.6,30.14,East,82,8.0,11.0,46,0.00,,,0.00,meteohub,2013-05-02 14:47:00,
2013-05-02 07:52:00,66.4,43.2,30.14,ESE,117,3.0,11.0,43,0.00,,,0.00,meteohub,2013-05-02 14:52:00,
2013-05-02 07:57:00,66.9,41.2,30.14,ENE,72,5.0,10.0,39,0.00,,,0.00,meteohub,2013-05-02 14:57:00,
2013-05-02 08:02:00,67.5,41.0,30.14,East,100,7.0,13.0,38,0.00,,,0.00,meteohub,2013-05-02 15:02:00,
2013-05-02 08:07:00,67.8,39.9,30.14,East,98,7.0,13.0,36,0.00,,,0.00,meteohub,2013-05-02 15:07:00,
2013-05-02 08:12:00,68.4,38.8,30.14,ENE,77,10.0,13.0,34,0.00,,,0.00,meteohub,2013-05-02 15:12:00,
2013-05-02 08:17:00,68.7,38.5,30.14,ESE,117,6.0,17.0,33,0.00,,,0.00,meteohub,2013-05-02 15:17:00,
2013-05-02 08:22:00,69.1,38.8,30.14,East,86,8.0,17.0,33,0.00,,,0.00,meteohub,2013-05-02 15:22:00,
2013-05-02 08:27:00,69.1,37.2,30.15,ENE,73,7.0,17.0,31,0.00,,,0.00,meteohub,2013-05-02 15:27:00,
2013-05-02 08:32:00,69.3,36.5,30.15,ESE,114,4.0,15.0,30,0.00,,,0.00,meteohub,2013-05-02 15:32:00,
2013-05-02 08:37:00,69.4,36.7,30.15,SE,136,12.0,15.0,30,0.00,,,0.00,meteohub,2013-05-02 15:37:00,
2013-05-02 08:42:00,69.8,37.0,30.14,ESE,117,5.0,15.0,30,0.00,,,0.00,meteohub,2013-05-02 15:42:00,
2013-05-02 08:47:00,70.2,35.6,30.15,ESE,104,3.0,17.0,28,0.00,,,0.00,meteohub,2013-05-02 15:47:00,
2013-05-02 08:52:00,70.5,35.8,30.15,East,94,9.0,19.0,28,0.00,,,0.00,meteohub,2013-05-02 15:52:00,
2013-05-02 08:57:00,70.7,36.0,30.15,ESE,106,10.0,19.0,28,0.00,,,0.00,meteohub,2013-05-02 15:57:00,
2013-05-02 09:02:00,70.9,36.1,30.15,East,84,6.0,19.0,28,0.00,,,0.00,meteohub,2013-05-02 16:02:00,
2013-05-02 09:07:00,71.1,35.4,30.15,East,79,10.0,17.0,27,0.00,,,0.00,meteohub,2013-05-02 16:07:00,
2013-05-02 09:12:00,71.4,34.7,30.15,ESE,115,14.0,17.0,26,0.00,,,0.00,meteohub,2013-05-02 16:12:00,
2013-05-02 09:17:00,71.8,34.0,30.15,ESE,122,5.0,17.0,25,0.00,,,0.00,meteohub,2013-05-02 16:17:00,
2013-05-02 09:22:00,72.1,33.4,30.16,SE,136,0.0,15.0,24,0.00,,,0.00,meteohub,2013-05-02 16:22:00,
2013-05-02 09:27:00,72.7,32.7,30.15,East,86,4.0,15.0,23,0.00,,,0.00,meteohub,2013-05-02 16:27:00,
2013-05-02 09:32:00,72.9,32.9,30.15,ESE,108,4.0,15.0,23,0.00,,,0.00,meteohub,2013-05-02 16:32:00,
2013-05-02 09:37:00,72.9,32.9,30.15,East,99,0.0,15.0,23,0.00,,,0.00,meteohub,2013-05-02 16:37:00,
2013-05-02 09:42:00,73.2,33.3,30.15,ESE,113,6.0,15.0,23,0.00,,,0.00,meteohub,2013-05-02 16:42:00,
2013-05-02 09:47:00,73.6,32.4,30.15,ESE,113,1.0,14.0,22,0.00,,,0.00,meteohub,2013-05-02 16:47:00,
2013-05-02 09:52:00,73.9,32.7,30.15,East,98,6.0,14.0,22,0.00,,,0.00,meteohub,2013-05-02 16:52:00,
2013-05-02 09:57:00,74.1,31.6,30.15,ESE,108,10.0,14.0,21,0.00,,,0.00,meteohub,2013-05-02 16:57:00,
2013-05-02 10:02:00,74.1,31.6,30.15,East,82,7.0,11.0,21,0.00,,,0.00,meteohub,2013-05-02 17:02:00,
2013-05-02 10:07:00,74.5,32.0,30.16,East,95,2.0,13.0,21,0.00,,,0.00,meteohub,2013-05-02 17:07:00,
2013-05-02 10:12:00,74.8,31.1,30.16,NE,34,6.0,13.0,20,0.00,,,0.00,meteohub,2013-05-02 17:12:00,
2013-05-02 10:17:00,74.8,32.4,30.16,East,85,5.0,13.0,21,0.00,,,0.00,meteohub,2013-05-02 17:17:00,
2013-05-02 10:22:00,74.8,32.4,30.16,East,96,0.0,12.0,21,0.00,,,0.00,meteohub,2013-05-02 17:22:00,
2013-05-02 10:27:00,75.0,32.4,30.16,East,93,7.0,12.0,21,0.00,,,0.00,meteohub,2013-05-02 17:27:00,
2013-05-02 10:32:00,75.6,31.6,30.16,East,88,3.0,12.0,20,0.00,,,0.00,meteohub,2013-05-02 17:32:00,
2013-05-02 10:37:00,75.7,31.8,30.16,ESE,116,8.0,11.0,20,0.00,,,0.00,meteohub,2013-05-02 17:37:00,
2013-05-02 10:42:00,76.1,32.2,30.16,ESE,104,4.0,11.0,20,0.00,,,0.00,meteohub,2013-05-02 17:42:00,
2013-05-02 10:47:00,76.3,32.2,30.16,SE,126,4.0,11.0,20,0.00,,,0.00,meteohub,2013-05-02 17:47:00,
2013-05-02 10:52:00,76.6,32.5,30.16,ESE,102,3.0,10.0,20,0.00,,,0.00,meteohub,2013-05-02 17:52:00,
2013-05-02 10:57:00,76.8,31.5,30.16,SSE,149,2.0,10.0,19,0.00,,,0.00,meteohub,2013-05-02 17:57:00,
2013-05-02 11:02:00,77.4,31.8,30.16,ENE,63,0.0,9.0,19,0.00,,,0.00,meteohub,2013-05-02 18:02:00,
2013-05-02 11:07:00,77.4,30.6,30.16,ENE,72,4.0,9.0,18,0.00,,,0.00,meteohub,2013-05-02 18:07:00,
2013-05-02 11:12:00,77.5,32.0,30.16,East,91,4.0,9.0,19,0.00,,,0.00,meteohub,2013-05-02 18:12:00,
2013-05-02 11:17:00,78.1,32.5,30.16,SE,125,5.0,9.0,19,0.00,,,0.00,meteohub,2013-05-02 18:17:00,
2013-05-02 11:22:00,78.4,32.7,30.16,ENE,70,1.0,9.0,19,0.00,,,0.00,meteohub,2013-05-02 18:22:00,
2013-05-02 11:27:00,78.4,32.7,30.16,ENE,61,2.0,9.0,19,0.00,,,0.00,meteohub,2013-05-02 18:27:00,
2013-05-02 11:32:00,79.0,33.3,30.16,East,91,0.0,10.0,19,0.00,,,0.00,meteohub,2013-05-02 18:32:00,
2013-05-02 11:37:00,79.5,33.6,30.16,NE,35,0.0,10.0,19,0.00,,,0.00,meteohub,2013-05-02 18:37:00,
2013-05-02 11:42:00,79.7,32.4,30.16,ENE,57,9.0,10.0,18,0.00,,,0.00,meteohub,2013-05-02 18:42:00,
2013-05-02 11:47:00,79.5,30.9,30.16,East,96,6.0,10.0,17,0.00,,,0.00,meteohub,2013-05-02 18:47:00,
2013-05-02 11:52:00,79.7,32.4,30.16,ENE,68,0.0,10.0,18,0.00,,,0.00,meteohub,2013-05-02 18:52:00,
2013-05-02 11:57:00,80.1,31.3,30.16,ENE,58,4.0,10.0,17,0.00,,,0.00,meteohub,2013-05-02 18:57:00,
2013-05-02 12:02:00,80.4,33.1,30.16,East,94,7.0,10.0,18,0.00,,,0.00,meteohub,2013-05-02 19:02:00,
2013-05-02 12:07:00,80.8,33.3,30.16,East,80,2.0,10.0,18,0.00,,,0.00,meteohub,2013-05-02 19:07:00,
2013-05-02 12:12:00,81.0,32.0,30.16,SE,143,0.0,10.0,17,0.00,,,0.00,meteohub,2013-05-02 19:12:00,
2013-05-02 12:17:00,81.1,33.6,30.16,ENE,63,5.0,11.0,18,0.00,,,0.00,meteohub,2013-05-02 19:17:00,
2013-05-02 12:22:00,81.5,30.9,30.15,ESE,113,3.0,11.0,16,0.00,,,0.00,meteohub,2013-05-02 19:22:00,
2013-05-02 12:28:00,81.3,30.9,30.15,East,91,5.0,11.0,16,0.00,,,0.00,meteohub,2013-05-02 19:28:00,
2013-05-02 12:33:00,81.7,31.1,30.15,East,86,0.0,11.0,16,0.00,,,0.00,meteohub,2013-05-02 19:33:00,
2013-05-02 12:38:00,82.0,31.5,30.15,SE,134,3.0,11.0,16,0.00,,,0.00,meteohub,2013-05-02 19:38:00,
2013-05-02 12:43:00,82.2,31.6,30.15,ENE,65,5.0,10.0,16,0.00,,,0.00,meteohub,2013-05-02 19:43:00,
2013-05-02 12:48:00,82.6,31.8,30.15,SE,144,3.0,9.0,16,0.00,,,0.00,meteohub,2013-05-02 19:48:00,
2013-05-02 12:53:00,83.1,32.4,30.15,SE,141,6.0,9.0,16,0.00,,,0.00,meteohub,2013-05-02 19:53:00,
2013-05-02 12:58:00,83.1,32.4,30.14,ENE,75,0.0,10.0,16,0.00,,,0.00,meteohub,2013-05-02 19:58:00,
2013-05-02 13:03:00,83.5,30.9,30.15,East,82,1.0,10.0,15,0.00,,,0.00,meteohub,2013-05-02 20:03:00,
2013-05-02 13:08:00,83.7,31.1,30.14,ESE,114,0.0,10.0,15,0.00,,,0.00,meteohub,2013-05-02 20:08:00,
2013-05-02 13:14:00,83.8,31.3,30.14,East,98,0.0,10.0,15,0.00,,,0.00,meteohub,2013-05-02 20:14:00,
2013-05-02 13:19:00,84.0,31.5,30.14,East,99,0.0,10.0,15,0.00,,,0.00,meteohub,2013-05-02 20:19:00,
2013-05-02 13:24:00,84.4,31.6,30.14,East,87,0.0,10.0,15,0.00,,,0.00,meteohub,2013-05-02 20:24:00,
2013-05-02 13:29:00,84.9,32.2,30.14,East,87,0.0,4.0,15,0.00,,,0.00,meteohub,2013-05-02 20:29:00,
2013-05-02 13:34:00,84.7,32.0,30.14,North,4,0.0,4.0,15,0.00,,,0.00,meteohub,2013-05-02 20:34:00,
2013-05-02 13:39:00,84.7,32.0,30.14,NNW,346,0.0,4.0,15,0.00,,,0.00,meteohub,2013-05-02 20:39:00,
2013-05-02 13:44:00,84.9,32.2,30.14,NNW,340,0.0,3.0,15,0.00,,,0.00,meteohub,2013-05-02 20:44:00,
2013-05-02 13:49:00,84.0,42.3,30.14,WSW,243,1.0,3.0,23,0.00,,,0.00,meteohub,2013-05-02 20:49:00,
2013-05-02 13:54:00,83.1,41.5,30.14,West,266,7.0,8.0,23,0.00,,,0.00,meteohub,2013-05-02 20:54:00,
2013-05-02 13:59:00,82.0,42.8,30.14,West,273,5.0,8.0,25,0.00,,,0.00,meteohub,2013-05-02 20:59:00,
2013-05-02 14:04:00,81.0,43.9,30.14,WSW,242,4.0,9.0,27,0.00,,,0.00,meteohub,2013-05-02 21:04:00,
2013-05-02 14:09:00,80.4,45.3,30.14,West,263,1.0,9.0,29,0.00,,,0.00,meteohub,2013-05-02 21:09:00,
2013-05-02 14:14:00,79.0,45.0,30.14,WSW,240,4.0,9.0,30,0.00,,,0.00,meteohub,2013-05-02 21:14:00,
2013-05-02 14:19:00,78.1,45.9,30.14,WSW,248,5.0,9.0,32,0.00,,,0.00,meteohub,2013-05-02 21:19:00,
2013-05-02 14:24:00,77.2,45.9,30.15,SW,218,4.0,9.0,33,0.00,,,0.00,meteohub,2013-05-02 21:24:00,
2013-05-02 14:29:00,75.9,45.5,30.15,WSW,255,3.0,9.0,34,0.00,,,0.00,meteohub,2013-05-02 21:29:00,
2013-05-02 14:34:00,75.4,45.9,30.15,West,266,6.0,8.0,35,0.00,,,0.00,meteohub,2013-05-02 21:34:00,
2013-05-02 14:39:00,74.1,44.8,30.15,West,260,6.0,8.0,35,0.00,,,0.00,meteohub,2013-05-02 21:39:00,
2013-05-02 14:44:00,72.9,44.4,30.15,West,262,4.0,10.0,36,0.00,,,0.00,meteohub,2013-05-02 21:44:00,
2013-05-02 14:49:00,72.7,45.7,30.14,West,279,1.0,10.0,38,0.00,,,0.00,meteohub,2013-05-02 21:49:00,
2013-05-02 14:54:00,72.3,44.6,30.14,SW,222,1.0,10.0,37,0.00,,,0.00,meteohub,2013-05-02 21:54:00,
2013-05-02 14:59:00,72.3,45.3,30.14,WSW,242,2.0,9.0,38,0.00,,,0.00,meteohub,2013-05-02 21:59:00,
2013-05-02 15:04:00,72.1,44.4,30.14,SW,224,0.0,9.0,37,0.00,,,0.00,meteohub,2013-05-02 22:04:00,
2013-05-02 15:10:00,72.9,46.4,30.14,SW,229,4.0,9.0,39,0.00,,,0.00,meteohub,2013-05-02 22:10:00,
2013-05-02 15:15:00,73.4,46.2,30.14,West,281,3.0,7.0,38,0.00,,,0.00,meteohub,2013-05-02 22:15:00,
2013-05-02 15:20:00,73.4,44.1,30.14,West,274,4.0,7.0,35,0.00,,,0.00,meteohub,2013-05-02 22:20:00,
2013-05-02 15:25:00,72.7,44.2,30.14,West,266,3.0,9.0,36,0.00,,,0.00,meteohub,2013-05-02 22:25:00,
2013-05-02 15:30:00,72.7,44.2,30.14,West,274,2.0,8.0,36,0.00,,,0.00,meteohub,2013-05-02 22:30:00,
2013-05-02 15:35:00,73.0,44.4,30.14,WSW,257,3.0,8.0,36,0.00,,,0.00,meteohub,2013-05-02 22:35:00,
2013-05-02 15:41:00,72.7,44.2,30.14,WSW,241,0.0,8.0,36,0.00,,,0.00,meteohub,2013-05-02 22:41:00,
2013-05-02 15:46:00,72.7,44.2,30.14,SW,214,5.0,8.0,36,0.00,,,0.00,meteohub,2013-05-02 22:46:00,
2013-05-02 15:51:00,72.1,43.7,30.13,SW,234,8.0,9.0,36,0.00,,,0.00,meteohub,2013-05-02 22:51:00,
2013-05-02 15:56:00,72.0,42.8,30.13,West,261,4.0,10.0,35,0.00,,,0.00,meteohub,2013-05-02 22:56:00,
2013-05-02 16:01:00,72.0,43.5,30.13,WSW,245,4.0,11.0,36,0.00,,,0.00,meteohub,2013-05-02 23:01:00,
2013-05-02 16:06:00,71.8,44.1,30.13,West,266,4.0,11.0,37,0.00,,,0.00,meteohub,2013-05-02 23:06:00,
2013-05-02 16:11:00,71.4,43.2,30.13,West,279,0.0,11.0,36,0.00,,,0.00,meteohub,2013-05-02 23:11:00,
2013-05-02 16:16:00,71.4,43.2,30.13,West,270,1.0,9.0,36,0.00,,,0.00,meteohub,2013-05-02 23:16:00,
2013-05-02 16:21:00,72.0,43.5,30.13,SW,235,5.0,9.0,36,0.00,,,0.00,meteohub,2013-05-02 23:21:00,
2013-05-02 16:27:00,71.8,44.8,30.13,WSW,248,3.0,9.0,38,0.00,,,0.00,meteohub,2013-05-02 23:27:00,
2013-05-02 16:32:00,72.0,44.2,30.13,West,265,1.0,9.0,37,0.00,,,0.00,meteohub,2013-05-02 23:32:00,
2013-05-02 16:37:00,72.0,44.2,30.13,WSW,251,4.0,9.0,37,0.00,,,0.00,meteohub,2013-05-02 23:37:00,
2013-05-02 16:42:00,71.2,43.7,30.13,SW,233,6.0,10.0,37,0.00,,,0.00,meteohub,2013-05-02 23:42:00,
2013-05-02 16:47:00,70.5,44.4,30.13,WSW,258,0.0,12.0,39,0.00,,,0.00,meteohub,2013-05-02 23:47:00,
2013-05-02 16:52:00,70.5,43.7,30.12,WSW,258,8.0,12.0,38,0.00,,,0.00,meteohub,2013-05-02 23:52:00,
2013-05-02 16:57:00,70.5,43.7,30.12,WSW,244,4.0,12.0,38,0.00,,,0.00,meteohub,2013-05-02 23:57:00,
2013-05-02 17:02:00,70.7,43.9,30.13,WNW,283,7.0,10.0,38,0.00,,,0.00,meteohub,2013-05-03 00:02:00,
2013-05-02 17:07:00,70.9,44.1,30.12,West,276,5.0,9.0,38,0.00,,,0.00,meteohub,2013-05-03 00:07:00,
2013-05-02 17:12:00,71.1,43.5,30.13,WSW,250,7.0,9.0,37,0.00,,,0.00,meteohub,2013-05-03 00:12:00,
2013-05-02 17:17:00,70.3,43.5,30.12,WSW,253,8.0,10.0,38,0.00,,,0.00,meteohub,2013-05-03 00:17:00,
2013-05-02 17:22:00,70.3,44.2,30.12,WSW,256,6.0,10.0,39,0.00,,,0.00,meteohub,2013-05-03 00:22:00,
2013-05-02 17:27:00,70.3,45.0,30.12,WSW,245,1.0,10.0,40,0.00,,,0.00,meteohub,2013-05-03 00:27:00,
2013-05-02 17:32:00,70.5,44.4,30.12,WSW,239,1.0,10.0,39,0.00,,,0.00,meteohub,2013-05-03 00:32:00,
2013-05-02 17:37:00,70.3,44.2,30.12,West,274,3.0,10.0,39,0.00,,,0.00,meteohub,2013-05-03 00:37:00,
2013-05-02 17:42:00,70.3,44.2,30.12,West,269,0.0,9.0,39,0.00,,,0.00,meteohub,2013-05-03 00:42:00,
2013-05-02 17:47:00,70.3,43.5,30.12,WSW,238,4.0,9.0,38,0.00,,,0.00,meteohub,2013-05-03 00:47:00,
2013-05-02 17:52:00,70.0,42.4,30.12,WSW,245,1.0,9.0,37,0.00,,,0.00,meteohub,2013-05-03 00:52:00,
2013-05-02 17:57:00,70.2,41.9,30.12,WSW,255,5.0,8.0,36,0.00,,,0.00,meteohub,2013-05-03 00:57:00,
2013-05-02 18:02:00,69.6,42.3,30.12,WSW,252,0.0,8.0,37,0.00,,,0.00,meteohub,2013-05-03 01:02:00,
2013-05-02 18:07:00,69.6,42.3,30.12,WSW,248,0.0,8.0,37,0.00,,,0.00,meteohub,2013-05-03 01:07:00,
2013-05-02 18:12:00,69.4,40.6,30.12,SW,234,0.0,8.0,35,0.00,,,0.00,meteohub,2013-05-03 01:12:00,
2013-05-02 18:17:00,69.3,41.2,30.12,WSW,238,0.0,8.0,36,0.00,,,0.00,meteohub,2013-05-03 01:17:00,
2013-05-02 18:22:00,69.4,41.4,30.12,WSW,239,4.0,8.0,36,0.00,,,0.00,meteohub,2013-05-03 01:22:00,
2013-05-02 18:27:00,69.1,41.0,30.12,WSW,252,5.0,7.0,36,0.00,,,0.00,meteohub,2013-05-03 01:27:00,
2013-05-02 18:32:00,68.4,42.4,30.12,WSW,247,0.0,7.0,39,0.00,,,0.00,meteohub,2013-05-03 01:32:00,
2013-05-02 18:37:00,67.8,43.3,30.12,West,268,0.0,7.0,41,0.00,,,0.00,meteohub,2013-05-03 01:37:00,
2013-05-02 18:42:00,67.8,44.4,30.11,West,268,3.0,7.0,43,0.00,,,0.00,meteohub,2013-05-03 01:42:00,
2013-05-02 18:47:00,68.0,43.3,30.11,West,266,0.0,7.0,41,0.00,,,0.00,meteohub,2013-05-03 01:47:00,
2013-05-02 18:52:00,68.0,44.1,30.11,West,266,0.0,5.0,42,0.00,,,0.00,meteohub,2013-05-03 01:52:00,
2013-05-02 18:57:00,67.6,43.7,30.11,West,269,4.0,5.0,42,0.00,,,0.00,meteohub,2013-05-03 01:57:00,
2013-05-02 19:02:00,67.5,43.5,30.11,WSW,241,4.0,7.0,42,0.00,,,0.00,meteohub,2013-05-03 02:02:00,
2013-05-02 19:07:00,66.9,43.7,30.11,WSW,240,2.0,7.0,43,0.00,,,0.00,meteohub,2013-05-03 02:07:00,
2013-05-02 19:12:00,66.6,43.3,30.11,WSW,245,1.0,9.0,43,0.00,,,0.00,meteohub,2013-05-03 02:12:00,
2013-05-02 19:17:00,66.0,44.1,30.11,WSW,245,0.0,9.0,45,0.00,,,0.00,meteohub,2013-05-03 02:17:00,
2013-05-02 19:22:00,66.0,44.1,30.11,WSW,245,0.0,5.0,45,0.00,,,0.00,meteohub,2013-05-03 02:22:00,
2013-05-02 19:27:00,65.8,43.9,30.11,WSW,250,2.0,6.0,45,0.00,,,0.00,meteohub,2013-05-03 02:27:00,
2013-05-02 19:33:00,65.3,43.3,30.11,WSW,246,0.0,6.0,45,0.00,,,0.00,meteohub,2013-05-03 02:33:00,
2013-05-02 19:38:00,65.1,43.9,30.11,WSW,246,0.0,7.0,46,0.00,,,0.00,meteohub,2013-05-03 02:38:00,
2013-05-02 19:43:00,65.1,43.9,30.11,WSW,246,2.0,7.0,46,0.00,,,0.00,meteohub,2013-05-03 02:43:00,
2013-05-02 19:48:00,64.9,43.7,30.11,WSW,246,0.0,6.0,46,0.00,,,0.00,meteohub,2013-05-03 02:48:00,
2013-05-02 19:53:00,64.8,43.5,30.11,WSW,246,0.0,4.0,46,0.00,,,0.00,meteohub,2013-05-03 02:53:00,
2013-05-02 19:58:00,64.4,43.2,30.11,WSW,246,0.0,4.0,46,0.00,,,0.00,meteohub,2013-05-03 02:58:00,
2013-05-02 20:03:00,64.2,42.4,30.10,WSW,246,0.0,4.0,45,0.00,,,0.00,meteohub,2013-05-03 03:03:00,
2013-05-02 20:08:00,64.2,42.4,30.11,WSW,246,0.0,4.0,45,0.00,,,0.00,meteohub,2013-05-03 03:08:00,
2013-05-02 20:14:00,64.2,42.4,30.11,WSW,246,0.0,3.0,45,0.00,,,0.00,meteohub,2013-05-03 03:14:00,
2013-05-02 20:19:00,64.2,42.4,30.11,WSW,246,0.0,0.0,45,0.00,,,0.00,meteohub,2013-05-03 03:19:00,
2013-05-02 20:24:00,64.2,41.9,30.11,WSW,246,0.0,0.0,44,0.00,,,0.00,meteohub,2013-05-03 03:24:00,
2013-05-02 20:29:00,64.0,41.7,30.11,WSW,246,0.0,0.0,44,0.00,,,0.00,meteohub,2013-05-03 03:29:00,
2013-05-02 20:34:00,64.2,40.6,30.11,WSW,246,0.0,0.0,42,0.00,,,0.00,meteohub,2013-05-03 03:34:00,
2013-05-02 20:40:00,64.2,41.2,30.10,WSW,246,0.0,0.0,43,0.00,,,0.00,meteohub,2013-05-03 03:40:00,
2013-05-02 20:45:00,64.2,41.2,30.11,WSW,246,0.0,1.0,43,0.00,,,0.00,meteohub,2013-05-03 03:45:00,
2013-05-02 20:50:00,64.2,41.2,30.11,WSW,246,0.0,0.0,43,0.00,,,0.00,meteohub,2013-05-03 03:50:00,
2013-05-02 20:55:00,64.2,38.7,30.11,WSW,246,0.0,1.0,39,0.00,,,0.00,meteohub,2013-05-03 03:55:00,
2013-05-02 21:00:00,64.8,37.9,30.11,WSW,246,0.0,1.0,37,0.00,,,0.00,meteohub,2013-05-03 04:00:00,
2013-05-02 21:01:00,64.8,38.5,30.10,WSW,246,0.0,1.0,38,0.00,,,0.00,meteohub,2013-05-03 04:01:00,
2013-05-02 21:02:00,64.8,39.2,30.10,WSW,246,2.0,2.0,39,0.00,,,0.00,meteohub,2013-05-03 04:02:00,
2013-05-02 21:03:00,64.9,37.4,30.11,WSW,246,0.0,1.0,36,0.00,,,0.00,meteohub,2013-05-03 04:03:00,
2013-05-02 21:09:00,65.1,37.6,30.11,WSW,246,0.0,4.0,36,0.00,,,0.00,meteohub,2013-05-03 04:09:00,
2013-05-02 21:12:00,65.5,36.3,30.11,WSW,248,4.0,4.0,34,0.00,,,0.00,meteohub,2013-05-03 04:12:00,
2013-05-02 21:17:00,65.8,36.7,30.11,West,275,0.0,7.0,34,0.00,,,0.00,meteohub,2013-05-03 04:17:00,
2013-05-02 21:22:00,65.8,37.4,30.10,West,275,0.0,7.0,35,0.00,,,0.00,meteohub,2013-05-03 04:22:00,
2013-05-02 21:27:00,65.7,38.7,30.10,West,275,0.0,7.0,37,0.00,,,0.00,meteohub,2013-05-03 04:27:00,
2013-05-02 21:32:00,65.5,39.2,30.11,West,275,0.0,3.0,38,0.00,,,0.00,meteohub,2013-05-03 04:32:00,
2013-05-02 21:37:00,65.1,38.8,30.11,West,275,0.0,0.0,38,0.00,,,0.00,meteohub,2013-05-03 04:37:00,
2013-05-02 21:42:00,64.8,39.2,30.11,West,275,0.0,0.0,39,0.00,,,0.00,meteohub,2013-05-03 04:42:00,
2013-05-02 21:48:00,64.4,39.6,30.10,West,275,0.0,0.0,40,0.00,,,0.00,meteohub,2013-05-03 04:48:00,
2013-05-02 21:53:00,64.0,39.9,30.11,West,275,0.0,0.0,41,0.00,,,0.00,meteohub,2013-05-03 04:53:00,
2013-05-02 21:59:00,63.9,39.7,30.10,West,275,0.0,0.0,41,0.00,,,0.00,meteohub,2013-05-03 04:59:00,
2013-05-02 22:04:00,63.5,39.4,30.10,West,275,0.0,0.0,41,0.00,,,0.00,meteohub,2013-05-03 05:04:00,
2013-05-02 22:09:00,63.1,38.5,30.10,West,275,0.0,0.0,40,0.00,,,0.00,meteohub,2013-05-03 05:09:00,
2013-05-02 22:14:00,63.0,38.8,30.10,West,275,0.0,0.0,41,0.00,,,0.00,meteohub,2013-05-03 05:14:00,
2013-05-02 22:19:00,62.8,38.7,30.10,West,275,0.0,0.0,41,0.00,,,0.00,meteohub,2013-05-03 05:19:00,
2013-05-02 22:24:00,62.4,37.8,30.10,West,275,0.0,0.0,40,0.00,,,0.00,meteohub,2013-05-03 05:24:00,
2013-05-02 22:29:00,62.4,37.8,30.10,West,275,0.0,0.0,40,0.00,,,0.00,meteohub,2013-05-03 05:29:00,
2013-05-02 22:34:00,62.4,37.8,30.10,West,275,0.0,0.0,40,0.00,,,0.00,meteohub,2013-05-03 05:34:00,
2013-05-02 22:39:00,62.4,37.8,30.10,West,275,0.0,0.0,40,0.00,,,0.00,meteohub,2013-05-03 05:39:00,
2013-05-02 22:44:00,62.2,38.3,30.10,West,275,0.0,0.0,41,0.00,,,0.00,meteohub,2013-05-03 05:44:00,
2013-05-02 22:49:00,62.2,38.3,30.10,West,275,0.0,0.0,41,0.00,,,0.00,meteohub,2013-05-03 05:49:00,
2013-05-02 22:54:00,62.1,38.1,30.10,West,275,0.0,0.0,41,0.00,,,0.00,meteohub,2013-05-03 05:54:00,
2013-05-02 22:59:00,62.1,37.4,30.10,West,275,0.0,0.0,40,0.00,,,0.00,meteohub,2013-05-03 05:59:00,
2013-05-02 23:04:00,62.2,37.0,30.10,West,275,0.0,0.0,39,0.00,,,0.00,meteohub,2013-05-03 06:04:00,
2013-05-02 23:09:00,62.2,36.3,30.10,West,275,0.0,0.0,38,0.00,,,0.00,meteohub,2013-05-03 06:09:00,
2013-05-02 23:14:00,62.2,36.3,30.10,West,275,0.0,0.0,38,0.00,,,0.00,meteohub,2013-05-03 06:14:00,
2013-05-02 23:19:00,62.2,37.0,30.10,West,275,0.0,0.0,39,0.00,,,0.00,meteohub,2013-05-03 06:19:00,
2013-05-02 23:24:00,62.2,37.0,30.10,West,275,0.0,0.0,39,0.00,,,0.00,meteohub,2013-05-03 06:24:00,
2013-05-02 23:29:00,62.1,37.4,30.10,West,275,0.0,0.0,40,0.00,,,0.00,meteohub,2013-05-03 06:29:00,
2013-05-02 23:34:00,62.1,36.9,30.10,West,275,0.0,0.0,39,0.00,,,0.00,meteohub,2013-05-03 06:34:00,
2013-05-02 23:39:00,62.1,37.4,30.10,West,275,0.0,0.0,40,0.00,,,0.00,meteohub,2013-05-03 06:39:00,
2013-05-02 23:44:00,62.2,37.6,30.10,West,275,0.0,1.0,40,0.00,,,0.00,meteohub,2013-05-03 06:44:00,
2013-05-02 23:49:00,62.2,38.3,30.10,West,275,0.0,4.0,41,0.00,,,0.00,meteohub,2013-05-03 06:49:00,
2013-05-02 23:54:00,62.1,38.1,30.10,West,275,0.0,4.0,41,0.00,,,0.00,meteohub,2013-05-03 06:54:00,
2013-05-02 23:59:00,61.5,38.3,30.10,West,275,0.0,4.0,42,0.00,,,0.00,meteohub,2013-05-03 06:59:00,